Regional Weather Roundup
Issued by NWS

Home | Current Version | Previous Version | Graphics & Text | Print | Product List | Glossary On
Versions: 1 2 3 4 5 6 7 8 9 10 11 12 13 14 15 16 17 18 19 20 21 22 23 24 25 26 27
000
ASUS45 KBOU 231407
RWRCO

WEATHER ROUNDUP FOR COLORADO
NATIONAL WEATHER SERVICE DENVER/BOULDER CO
800 AM MDT SAT JUL 23 2016

NOTE: "FAIR" INDICATES FEW OR NO CLOUDS BELOW 12000 FEET WITH NO
SIGNIFICANT WEATHER AND/OR OBSTRUCTIONS TO VISIBILITY.

COZ001>005-013-030-031-231500-
...NORTHWEST COLORADO...

CITY           SKY/WX    TMP DP  RH WIND       PRES   REMARKS
CRAIG          FAIR      61  48  62 NW3       30.28R
HAYDEN         FAIR      61  45  55 E7        30.30R
MEEKER         FAIR      61  48  62 CALM      30.29S
MOUNT WERNER   NOT AVBL
STEAMBOAT SPGS FAIR      57  46  66 CALM      30.32S
WALDEN         FAIR      59  45  58 SE3       30.40R
$$

COZ006>008-011-231500-
...WEST CENTRAL VALLEYS...

CITY           SKY/WX    TMP DP  RH WIND       PRES   REMARKS
GRAND JUNCTION FAIR      70  54  56 SE14      30.17R
MONTROSE       FAIR      65  50  58 SE6       30.27S
EAGLE          SUNNY     57  48  72 CALM      30.36S
RIFLE          FAIR      65  53  65 CALM      30.25R
DELTA          FAIR      68  52  56 E5        30.23S HAZE
NUCLA          FAIR      64  46  52 E7        30.31R
$$

COZ017>023-064>068-231500-
...SOUTHWEST COLORADO...

CITY           SKY/WX    TMP DP  RH WIND       PRES   REMARKS
DURANGO        FAIR      65  47  52 CALM      30.30R
CORTEZ         FAIR      65  50  58 S3        30.26R
PAGOSA SPRINGS FAIR      66  44  44 CALM      30.38R
TELLURIDE      FAIR      57  43  60 SE5       30.51S
WOLF CREEK PAS FAIR      55  34  44 N7        30.71S
$$

COZ009-010-012-014-032>034-037-058>063-231500-
...CENTRAL COLORADO...

CITY           SKY/WX    TMP DP  RH WIND       PRES   REMARKS
ASPEN          FAIR      59  45  59 SE5       30.39S
BUENA VISTA    FAIR      62  45  54 NW9       30.38F
COPPER MTN     FAIR      54  37  54 W6        30.71R
BERTHOUD PASS  FAIR      45  32  61 N15G23    30.72S
COTTONWOOD PAS FAIR      64  39  39 CALM      30.52R
GUNNISON       FAIR      52  45  76 CALM      30.46S
KREMMLING      FAIR      54  46  76 CALM      30.41S
LEADVILLE      FAIR      55  41  59 N7        30.54R
MONARCH PASS   FAIR      50  36  57 N6        30.79R
SALIDA         FAIR      60  46  59 NW9       30.44S
SUNLIGHT       FAIR      59  37  44 CALM      30.64R
WILKERSON PASS FAIR      59  34  38 N8        30.65R
$$

COZ069>075-231500-
...SAN LUIS VALLEY/SANGRE DE CRISTO MOUNTAINS...

CITY           SKY/WX    TMP DP  RH WIND       PRES   REMARKS
ALAMOSA        FAIR      62  48  60 NW6       30.36R
LA VETA PASS   FAIR      61  41  48 SW5       30.54R
SAGUACHE       FAIR      61  46  59 NW17      30.39S
$$

COZ035-036-038>040-231500-
...NORTHERN COLORADO FRONT RANGE...

CITY           SKY/WX    TMP DP  RH WIND       PRES   REMARKS
DENVER INTL AP FAIR      77  48  35 SW10      30.11R
DMNS CITY PARK   N/A     73  49  43 S7        30.11F
AURORA         MOSUNNY   74  49  40 SW8       30.14S
FRONT RANGE AP MOSUNNY   79  46  31 SW9       30.12S
ERIE MUNI ARPT FAIR      73  51  46 CALM      30.09S
BOULDER MUN AP FAIR      72  54  53 CALM      30.11R
CENTENNIAL     FAIR      77  43  29 W8        30.15S
BROOMFIELD     MOSUNNY   73  52  46 CALM      30.14R
LONGMONT       FAIR      76  55  47 CALM      30.10S
$$

COZ041-046-047-076>085-087-088-231500-
...PIKES PEAK/PALMER DIVIDE AND SOUTHERN FOOTHILLS...

CITY           SKY/WX    TMP DP  RH WIND       PRES   REMARKS
COLO. SPRINGS  PTSUNNY   79  44  28 NW9       30.19R
A. F. ACADEMY  FAIR      72  46  39 N8        30.21S
SCHRIEVER AFB  NOT AVBL
ELLICOTT       FAIR     N/A N/A N/A N8        30.16R
FALCON         NOT AVBL
FORT CARSON    FAIR      77  46  33 NW7       30.15R
LIMON          FAIR      78  47  33 W9        30.11R
MONUMENT HILL  FAIR      70  48  46 W5        30.27R
TRINIDAD       NOT AVBL
$$

COZ042>045-048>051-090-091-231500-
...NORTHEAST COLORADO...

CITY           SKY/WX    TMP DP  RH WIND       PRES   REMARKS
GREELEY ARPT   FAIR      70  64  83 CALM      30.08S
AKRON          FAIR      71  61  70 W9        30.05S
BURLINGTON     FAIR      74  61  63 S5        30.00S
WRAY           NOT AVBL
STERLING       FAIR      72  66  83 CALM      30.01S
HOLYOKE        FAIR      77  66  69 W6        29.98F
FORT MORGAN    FAIR      74  62  65 W5        30.06S
$$

COZ086-089-092>099-231500-
...SOUTHEAST COLORADO...

CITY           SKY/WX    TMP DP  RH WIND       PRES   REMARKS
PUEBLO         FAIR      78  54  43 CALM      30.07R
LA JUNTA       FAIR      79  54  41 W10       30.01R
LAMAR          FAIR      78  57  48 W9        29.95S
SPRINGFIELD      N/A     80  50  34 SW8       30.03R
$$




USA.gov is the U.S. government's official web portal to all federal, state and local government web resources and services.